[[{"header":{"parameterUnit":"m.s-1","parameterCategory":1,"la1":30.2991,"la2":30.254,"lo1":-89.0895,"lo2":-89.0444,"dy":0.0017,"dx":0.0017,"nx":28,"ny":28,"refTime":"2023-09-17T21:00:00:Z","depth":0,"parameterNumber":2,"parameterNumberName":"U-component_of_WINDS"},"data":[0,0,0,0,0,0,0,0,0,0,0,0,0,0,0,0,0,0,0,0,0,0,0,0,0,0,0,0,0,0,0,0,0,0,0,0,0,0,0,0,0,0,0,0,0,0,0,0,0,0,0,0,0,0,0,0,0,0,0.6284,0.6285,0,0.6354,0.6355,0.6356,0.6384,0.6384,0.6384,0.6384,0.6458,0.646,0.6462,0,0,0,0,0,0,0,0,0,0,0,0,0,0.6179,0.6181,0.6284,0.6285,0.6286,0.6354,0.6355,0.6356,0.6384,0.6384,0.6384,0.6384,0.6458,0.646,0.6463,0,0,0,0,0,0,0,0,0,0,0,0,0,0.6234,0.6181,0.6284,0.6308,0.6311,0.6354,0.6355,0.6356,0.6384,0.6384,0.6384,0.6383,0.6457,0.646,0.6463,0.6488,0,0,0.6473,0.6474,0,0,0,0,0,0,0,0,0.6231,0.6238,0.6304,0.6307,0.631,0.636,0.6345,0.6401,0.6384,0.6357,0.6384,0.6383,0.6426,0.6432,0.6446,0.6492,0.6495,0.6473,0.6475,0.6476,0.6477,0,0,0,0,0,0,0,0.6227,0.6236,0.6312,0.6305,0.6308,0.6317,0.6324,0.6356,0.6392,0.6359,0.6361,0.6369,0.6428,0.6442,0.6448,0.6496,0.6473,0.6476,0.6478,0.6479,0.6568,0.6568,0,0,0,0,0,0,0.6219,0.6232,0.631,0.6314,0.6269,0.6319,0.6327,0.6344,0.6392,0.6399,0.6369,0.637,0.6437,0.6444,0.645,0.6484,0.6476,0.6479,0.6481,0.6567,0.6568,0.6568,0,0,0,0,0,0,0.6217,0.6226,0.6307,0.6274,0.6285,0.6321,0.634,0.6346,0.636,0.6399,0.6406,0.6377,0.6437,0.6446,0.6479,0.6487,0.6481,0.6484,0.6567,0.6568,0.6568,0.655,0,0,0,0,0,0,0.6214,0.6225,0.6234,0.6274,0.6286,0.6333,0.634,0.6347,0.6366,0.6367,0.6409,0.6415,0.6438,0.6474,0.6482,0.6491,0.6486,0.6566,0.6567,0.6568,0.655,0.655,0.655,0,0,0,0,0,0.621,0.6226,0.6234,0.6243,0.6298,0.6333,0.6341,0.6365,0.6366,0.6376,0.6401,0.6414,0.6484,0.6477,0.6486,0.6496,0.6566,0.6567,0.6568,0.655,0.655,0.655,0,0,0,0,0,0,0.6187,0.6232,0.6241,0.627,0.6298,0.6338,0.6351,0.6364,0.6392,0.6393,0.6423,0.6432,0.6463,0.6483,0.6474,0.6524,0.6526,0.6529,0.651,0.651,0.651,0.6504,0.6489,0,0,0,0,0,0.6185,0.6208,0.6247,0.6269,0.6283,0.6314,0.6331,0.6347,0.6377,0.6389,0.6417,0.6446,0.6475,0.6494,0.6522,0.6553,0.6563,0.6565,0.6565,0.6565,0.6567,0.6586,0.6588,0.6571,0.6571,0.6571,0,0,0.6182,0.6209,0.6222,0.6266,0.6289,0.6314,0.6324,0.635,0.637,0.6393,0.6426,0.6447,0.6483,0.6515,0.6531,0.6533,0.6574,0.6566,0.6565,0.6568,0.6587,0.6589,0.659,0.6572,0.6572,0.6572,0,0,0.6189,0.6211,0.6233,0.6256,0.6291,0.6312,0.6317,0.6356,0.6371,0.6404,0.6423,0.6447,0.6496,0.652,0.6539,0.6557,0.657,0.6566,0.6565,0.6584,0.6585,0.6586,0.6594,0.6596,0.6568,0.6568,0.6568,0,0.618,0.6218,0.6243,0.6268,0.6287,0.6309,0.6332,0.6354,0.6397,0.641,0.6412,0.6474,0.6499,0.6538,0.6543,0.6557,0.6565,0.6561,0.6583,0.6584,0.6586,0.6593,0.6596,0.6567,0.6567,0.6567,0.6567,0,0.6207,0.6233,0.6246,0.6286,0.6307,0.6331,0.6361,0.6379,0.6394,0.6416,0.645,0.6481,0.6517,0.6528,0.6542,0.6569,0.657,0.6576,0.658,0.6586,0.6594,0.6597,0.6566,0.6566,0.6566,0.6567,0,0,0.6201,0.6254,0.6259,0.6278,0.6319,0.634,0.6366,0.64,0.6416,0.6445,0.6468,0.651,0.6517,0.6538,0.6556,0.6572,0.6586,0.6578,0.6579,0.6579,0.6619,0.6614,0.6617,0.6595,0.6596,0.6596,0.6616,0,0.6214,0.6259,0.6283,0.6319,0.6345,0.6367,0.639,0.6418,0.6439,0.6465,0.6489,0.6518,0.6524,0.6537,0.6554,0.6581,0.6595,0.6579,0.6618,0.6619,0.6609,0.662,0.6615,0.6632,0.6619,0.662,0.662,0,0.6234,0.6263,0.6301,0.634,0.6352,0.6371,0.6406,0.6429,0.6463,0.6477,0.6501,0.6519,0.6549,0.655,0.6592,0.6581,0.6599,0.6614,0.6616,0.6621,0.662,0.6626,0.6638,0.6641,0.6625,0.6624,0.6624,0,0.6227,0.6275,0.6305,0.632,0.6366,0.6379,0.6399,0.6432,0.6452,0.6482,0.6496,0.6529,0.6548,0.6574,0.6602,0.6599,0.6642,0.6644,0.6656,0.6655,0.6664,0.6663,0.6679,0.6674,0.6674,0.6674,0.6674,0,0.6239,0.6262,0.6302,0.632,0.6347,0.6375,0.6402,0.6423,0.6453,0.6477,0.6498,0.6521,0.6555,0.6582,0.6604,0.6636,0.6645,0.6658,0.6664,0.6657,0.6655,0.6669,0.6668,0.6675,0.6674,0.6674,0.6674,0,0.6235,0.6263,0.6297,0.6337,0.6348,0.6366,0.6402,0.6421,0.6444,0.6474,0.6483,0.6519,0.6552,0.6582,0.6626,0.6641,0.6675,0.6681,0.6663,0.6666,0.6676,0.6675,0.6703,0.6708,0.6698,0.6698,0.6698,0,0.6241,0.626,0.6302,0.6319,0.6339,0.6366,0.6386,0.6415,0.6436,0.6476,0.6491,0.6525,0.6555,0.6607,0.6638,0.6672,0.668,0.6688,0.6686,0.6678,0.6682,0.6681,0.6683,0.6688,0.6688,0.6688,0.6687,0,0.625,0.6263,0.629,0.6323,0.6346,0.6374,0.6402,0.6415,0.645,0.6472,0.6506,0.6528,0.6574,0.6609,0.6647,0.6669,0.6685,0.6688,0.6693,0.6686,0.6675,0.6682,0.6663,0.6687,0.6687,0.6687,0.6687,0.6687,0.6252,0.6269,0.6302,0.6333,0.6357,0.6383,0.6404,0.6429,0.6458,0.6496,0.6512,0.6547,0.6581,0.6634,0.6656,0.6685,0.6688,0.6694,0.6696,0.6697,0.6697,0.667,0.6692,0.6692,0.6692,0.6692,0.6692,0,0.6262,0.6284,0.6312,0.6351,0.6375,0.6387,0.6419,0.6439,0.6469,0.65,0.6528,0.6568,0.6603,0.6636,0.6673,0.6689,0.6698,0.6698,0.6697,0.6703,0.6691,0.6684,0.6691,0.6691,0.6691,0.6691,0.6691,0.6691,0.627,0.6301,0.6318,0.6362,0.6385,0.6418,0.6436,0.6461,0.6485,0.6529,0.6557,0.6578,0.6611,0.665,0.6683,0.6692,0.6705,0.6703,0.6715,0.6703,0.6703,0.6703,0.6696,0.6706,0.6706,0.6724,0.6724,0.6724]},{"header":{"parameterUnit":"m.s-1","parameterCategory":1,"la1":30.2991,"la2":30.254,"lo1":-89.0895,"lo2":-89.0444,"dy":0.0017,"dx":0.0017,"nx":28,"ny":28,"refTime":"2023-09-17T21:00:00:Z","depth":0,"parameterNumber":3,"parameterNumberName":"V-component_of_WINDS"},"data":[0,0,0,0,0,0,0,0,0,0,0,0,0,0,0,0,0,0,0,0,0,0,0,0,0,0,0,0,0,0,0,0,0,0,0,0,0,0,0,0,0,0,0,0,0,0,0,0,0,0,0,0,0,0,0,0,0,0,-2.8298,-2.8298,0,-2.8258,-2.8258,-2.8257,-2.8274,-2.8275,-2.8276,-2.8277,-2.823,-2.8228,-2.8226,0,0,0,0,0,0,0,0,0,0,0,0,0,-2.8386,-2.8384,-2.8298,-2.8298,-2.8297,-2.8258,-2.8258,-2.8257,-2.8274,-2.8275,-2.8276,-2.8277,-2.8231,-2.8228,-2.8226,0,0,0,0,0,0,0,0,0,0,0,0,0,-2.8347,-2.8384,-2.8298,-2.8301,-2.8301,-2.8258,-2.8258,-2.8257,-2.8274,-2.8275,-2.8277,-2.8278,-2.8232,-2.8228,-2.8225,-2.8176,0,0,-2.8215,-2.8214,0,0,0,0,0,0,0,0,-2.8349,-2.8344,-2.8301,-2.8301,-2.8301,-2.8273,-2.8271,-2.8229,-2.8273,-2.8284,-2.8277,-2.8279,-2.8243,-2.8239,-2.8228,-2.8174,-2.8172,-2.8215,-2.8213,-2.8212,-2.8211,0,0,0,0,0,0,0,-2.8352,-2.8345,-2.8282,-2.8301,-2.83,-2.8303,-2.8299,-2.8264,-2.8255,-2.8283,-2.8284,-2.8279,-2.8243,-2.8231,-2.8227,-2.8171,-2.8215,-2.8212,-2.821,-2.8209,-2.8077,-2.8075,0,0,0,0,0,0,-2.8355,-2.8348,-2.8284,-2.8281,-2.8329,-2.83,-2.8296,-2.828,-2.8256,-2.8254,-2.8278,-2.828,-2.8236,-2.823,-2.8225,-2.8168,-2.8212,-2.8209,-2.8207,-2.8078,-2.8077,-2.8075,0,0,0,0,0,0,-2.8357,-2.8349,-2.8285,-2.8315,-2.8307,-2.8297,-2.8279,-2.8278,-2.8267,-2.8252,-2.825,-2.8268,-2.8236,-2.823,-2.8189,-2.8166,-2.8207,-2.8204,-2.808,-2.8078,-2.8076,-2.8051,0,0,0,0,0,0,-2.8359,-2.835,-2.8332,-2.8314,-2.8305,-2.8251,-2.8278,-2.8277,-2.8262,-2.8264,-2.8242,-2.824,-2.8237,-2.8194,-2.8186,-2.8162,-2.8202,-2.8082,-2.8079,-2.8076,-2.8054,-2.8048,-2.8043,0,0,0,0,0,-2.8362,-2.8324,-2.8331,-2.8323,-2.8282,-2.8249,-2.8244,-2.8244,-2.826,-2.8241,-2.8232,-2.824,-2.817,-2.8189,-2.818,-2.8156,-2.8084,-2.808,-2.8077,-2.8056,-2.8049,-2.8043,0,0,0,0,0,0,-2.8336,-2.8322,-2.8329,-2.8284,-2.8268,-2.8252,-2.8229,-2.8236,-2.8213,-2.8216,-2.8215,-2.821,-2.8168,-2.8158,-2.818,-2.8108,-2.8129,-2.8124,-2.8117,-2.811,-2.8105,-2.8108,-2.8199,0,0,0,0,0,-2.8326,-2.8302,-2.829,-2.8252,-2.8244,-2.8238,-2.8223,-2.8225,-2.8207,-2.82,-2.8188,-2.8169,-2.8143,-2.8126,-2.8101,-2.8052,-2.8048,-2.8031,-2.8026,-2.8022,-2.8017,-2.7993,-2.7986,-2.8063,-2.8063,-2.8063,0,0,-2.8303,-2.8292,-2.8277,-2.8246,-2.8234,-2.8208,-2.8231,-2.8202,-2.8183,-2.8194,-2.8157,-2.8147,-2.8126,-2.8083,-2.8062,-2.8072,-2.7995,-2.8017,-2.8014,-2.8012,-2.7989,-2.7981,-2.7975,-2.8061,-2.8061,-2.8062,0,0,-2.8249,-2.8238,-2.8207,-2.8195,-2.8177,-2.8174,-2.8166,-2.815,-2.8145,-2.8107,-2.8116,-2.8092,-2.8047,-2.8033,-2.8019,-2.7963,-2.797,-2.7955,-2.7927,-2.7903,-2.7897,-2.7892,-2.7873,-2.7867,-2.795,-2.795,-2.795,0,-2.8223,-2.8186,-2.8189,-2.816,-2.8147,-2.8159,-2.8127,-2.8114,-2.8088,-2.8079,-2.8091,-2.8037,-2.8023,-2.7977,-2.7964,-2.7952,-2.7944,-2.7957,-2.7898,-2.7893,-2.7888,-2.787,-2.7863,-2.7948,-2.7948,-2.7949,-2.7949,0,-2.8155,-2.8129,-2.8106,-2.8084,-2.8068,-2.8037,-2.8035,-2.8018,-2.8022,-2.8017,-2.7979,-2.7964,-2.7938,-2.7926,-2.7928,-2.7881,-2.7888,-2.7899,-2.792,-2.7879,-2.7862,-2.7855,-2.7946,-2.7947,-2.7947,-2.7947,0,0,-2.8082,-2.8065,-2.8056,-2.8047,-2.803,-2.801,-2.798,-2.7957,-2.7943,-2.7925,-2.79,-2.7863,-2.7875,-2.786,-2.786,-2.7839,-2.7798,-2.7853,-2.7852,-2.7844,-2.7747,-2.774,-2.7732,-2.7802,-2.7801,-2.78,-2.775,0,-2.8028,-2.7979,-2.7982,-2.7935,-2.7912,-2.7924,-2.7899,-2.7885,-2.788,-2.7859,-2.7853,-2.7828,-2.7843,-2.7835,-2.7815,-2.7807,-2.7778,-2.781,-2.7779,-2.7778,-2.7786,-2.7723,-2.7715,-2.7668,-2.7743,-2.7742,-2.7741,0,-2.7958,-2.7941,-2.7893,-2.7882,-2.7872,-2.785,-2.783,-2.781,-2.7794,-2.7793,-2.7778,-2.7782,-2.7752,-2.7774,-2.7733,-2.7755,-2.7742,-2.7737,-2.7735,-2.7732,-2.7758,-2.772,-2.7652,-2.7646,-2.773,-2.7731,-2.7732,0,-2.7912,-2.7877,-2.7844,-2.7836,-2.7822,-2.7806,-2.7799,-2.7785,-2.7772,-2.7754,-2.7745,-2.7723,-2.7711,-2.7693,-2.7691,-2.7707,-2.765,-2.7672,-2.7648,-2.7648,-2.7636,-2.7637,-2.7566,-2.7626,-2.7626,-2.7626,-2.7626,0,-2.7852,-2.7822,-2.7824,-2.7804,-2.7772,-2.7775,-2.7742,-2.7737,-2.7725,-2.7704,-2.7712,-2.7691,-2.769,-2.7669,-2.7667,-2.7634,-2.7628,-2.7626,-2.7626,-2.7625,-2.7626,-2.7618,-2.7621,-2.7624,-2.7625,-2.7625,-2.7625,0,-2.7794,-2.7794,-2.776,-2.7751,-2.7748,-2.7724,-2.7715,-2.7696,-2.7693,-2.7667,-2.766,-2.7655,-2.7631,-2.7628,-2.7598,-2.7597,-2.7559,-2.7561,-2.7564,-2.7565,-2.7542,-2.7545,-2.7465,-2.7455,-2.752,-2.7519,-2.7519,0,-2.7756,-2.7735,-2.7724,-2.7712,-2.7705,-2.7684,-2.7671,-2.7674,-2.766,-2.7643,-2.7626,-2.7603,-2.7586,-2.7546,-2.7539,-2.7517,-2.752,-2.7494,-2.7517,-2.7518,-2.7522,-2.7524,-2.7522,-2.7489,-2.7489,-2.7488,-2.7488,0,-2.769,-2.7692,-2.7674,-2.7657,-2.7643,-2.7629,-2.7616,-2.7605,-2.7606,-2.759,-2.7568,-2.7554,-2.7526,-2.7504,-2.7483,-2.7474,-2.7481,-2.7481,-2.7474,-2.7474,-2.7478,-2.7477,-2.7554,-2.7482,-2.7483,-2.7483,-2.7483,-2.7484,-2.7642,-2.7624,-2.7615,-2.7596,-2.7587,-2.7575,-2.7558,-2.7554,-2.7536,-2.7515,-2.7518,-2.7493,-2.7479,-2.7453,-2.7443,-2.7423,-2.7432,-2.7422,-2.7419,-2.7417,-2.7416,-2.7481,-2.7419,-2.7419,-2.7419,-2.7419,-2.7419,0,-2.7577,-2.7572,-2.7555,-2.7538,-2.7524,-2.7534,-2.7521,-2.7507,-2.7486,-2.7474,-2.7458,-2.7432,-2.7411,-2.7404,-2.7383,-2.7369,-2.7371,-2.7363,-2.7365,-2.7363,-2.7409,-2.7417,-2.7361,-2.7361,-2.7361,-2.7361,-2.7362,-2.7362,-2.7541,-2.7513,-2.7514,-2.7481,-2.7476,-2.7454,-2.7446,-2.7436,-2.7427,-2.7399,-2.7383,-2.7379,-2.7369,-2.7348,-2.7329,-2.7328,-2.732,-2.7311,-2.731,-2.7353,-2.7359,-2.7365,-2.7373,-2.7309,-2.7309,-2.7267,-2.7266,-2.7266]}]]